Погода в Уртаме

Россия / Томская область     56°07′52″N   83°55′58″E
темп.,
°C
ветер,
м/с
пор.,
м/с
влажн.,
%
обл.,
%
осадки,
мм/ч
давл.,
гПа
погр.,
м
21 апреля, ср
ср2101:00−5юз3883100 0.0 1022364
04:00−5ююз4987100 0.1 1021630
07:00−5ю4993100 0.6 1021640
10:00−3ю4687100 0.4 1021673
13:00−1ю347599 0.8 10211051
16:00+1юв1265100 0.3 10231018
19:00+1всв137197 0.8 1025606
22:00−3ссв368978 0.1 1029126
22 апреля, чт
чт2201:00−4ссв37945 0.1 1032181
04:00−6ссв37915 0.0 1034150
07:00−6ссв39905 0.0 1038228
10:00−1ссв47705 0.0 1040708
13:00+2ссв4659100 0.0 10411535
16:00+3с4668100 0.3 10421215
19:00+2ссв367071 0.6 1043723
22:00−2ссв26925 0.1 104692
23 апреля, пт
пт2301:00−3ссв25945 0.1 104686
04:00−3ссв26935 0.0 1046135
07:00−3ссв37915 0.0 1047204
10:00+2св46685 0.0 1047762
13:00+4св455483 0.0 10451522
16:00+5св455199 0.0 10441703
19:00+4св356614 0.1 1044182
22:00−1ссв37892 0.0 1044133
24 апреля, сб
сб2401:00−2св27915 0.0 1043131
04:00−2ссв26935 0.0 1041133
07:00−2с38885 0.0 1040218
10:00+3ссв466691 0.0 1039806
13:00+5ссв4556100 0.0 10361227
16:00+6ссв4555100 0.0 10351426
19:00+5ссв247084 0.0 1034164
22:00+1с228413 0.0 103425
25 апреля, вс
вс2501:000с228838 0.0 103417
04:00+1ссз118690 0.0 103314
07:000ссз248741 0.0 1033116
10:00+5ссз23665 0.0 1033499
13:00+7сз235895 0.0 10321196
16:00+9зсз3354100 0.0 10311333
19:00+8сз2363100 0.0 1031466
22:00+5с0074100 0.0 103110